Seneca, SC (29672)

3:07 PM EST on February 26, 2017 (GMT -0500)
KS4YX - Sunset Shores | | Change Station

Elev 919 ft 34.74 °N, 82.96 °W | Updated 13 minutes ago

Clear
Clear
60.9 °F
Feels Like 60.9 °F
N
0.0
Wind Variable Wind from South
Gusts 3.0 mph

Today
High -- | Low -- °F
--% Chance of Precip.
Yesterday
High -- | Low -- °F
Precip. -- in
Pressure 30.17 in
Visibility 10.0 miles
Clouds Clear
Dew Point 25 °F
Humidity 25%
Rainfall 0.00 in
Snow Depth Not available.
7:04 AM 6:25 PM
New Moon, 0% visible
METAR KCEU 261954Z AUTO 15007KT 10SM CLR 15/M08 A3017 RMK AO2 SLP216 T01501083
Pressure 30.17 in
Visibility 10.0 miles
Clouds Clear
Dew Point 25 °F
Humidity 25%
Rainfall 0.00 in
Snow Depth Not available.
7:04 AM 6:25 PM
New Moon, 0% visible
METAR KCEU 261954Z AUTO 15007KT 10SM CLR 15/M08 A3017 RMK AO2 SLP216 T01501083

Get Your Daily Forecast Email!

Thanks for signing up!

Be on the lookout for a verification email in your inbox.

You'll start receiving the daily forecast at 8 AM.

×

10-Day Weather Forecast

Almanac

Astronomy

Feb. 26, 2017 Rise Set
Actual Time
Civil Twilight
Nautical Twilight
Astronomical Twilight
Moon
Length of Visible Light
Length of Day
Tomorrow will be .
, % of the Moon is Illuminated

Today's Extremes

State Highs State Lows

Community

WunderPhotos

Upload Photos

1,962,540 photos uploaded!

WunderBlog® & News

Nearby

Air Quality

  Air Quality AQ Index Pollutant
Not available.

Snow Depth

Station Depth Elevation

Earthquake Activity

City Distance Mag. Time & Date
Minimum magnitude displayed is 2.5.

Coastal Water Temperatures

Place Temperature

Stations

Nearby Weather Stations

Station Location Temp. Windchill Dew Point Humidity Wind Precip. Elev Updated Type
                   

Watches & Warnings

There are currently no watches in effect.